Regional Weather Roundup
Issued by NWS Sioux Falls, SD

Home | Current Version | Previous Version | Graphics & Text | Print | Product List | Glossary On
Versions: 1 2 3 4 5 6 7 8 9 10 11 12 13 14 15 16 17 18 19 20 21 22 23 24 25 26 27 28 29 30 31 32 33 34 35 36 37 38 39 40 41 42 43 44 45 46 47 48 49 50
000
ASUS43 KFSD 310910
RWRFSD

WEATHER ROUNDUP FOR SE SOUTH DAKOTA/SW MINNESOTA/NW IOWA
NATIONAL WEATHER SERVICE SIOUX FALLS SD
400 AM CDT FRI OCT 31 2014

NOTE: "FAIR" INDICATES FEW OR NO CLOUDS BELOW 12,000 FEET WITH NO
SIGNIFICANT WEATHER AND OR OBSTRUCTIONS TO VISIBILITY.


SDZ038>040-050-052>070-311000-
SOUTHEAST SOUTH DAKOTA

CITY           SKY/WX    TMP DP  RH WIND       PRES   REMARKS
CHAMBERLAIN    PTCLDY    21  17  85 NW3       30.58R
HURON          CLEAR     14  11  87 N6        30.58S WCI   5
MADISON        FAIR      19  19 100 N7        30.52R WCI  10
MITCHELL       CLEAR     22  19  89 N8        30.58R WCI  12
SIOUX FALLS    CLEAR     23  18  81 N7        30.52R WCI  15
WINNER         FAIR      23  18  81 CALM      30.56S
YANKTON        CLEAR     27  19  74 NW8       30.56R WCI  18
$$

MNZ071-072-080-081-089-090-097-098-311000-
SOUTHWEST MINNESOTA

CITY           SKY/WX    TMP DP  RH WIND       PRES   REMARKS
FAIRMONT       CLEAR     27  16  63 NW14      30.45R WCI  15
JACKSON        CLEAR     28  19  69 N12G17    30.46S WCI  18
LUVERNE        CLEAR     28  21  74 N9        30.51R WCI  20
MARSHALL       CLEAR     23  18  80 N12       30.51S WCI  12
MONTEVIDEO     CLEAR     25  19  80 N6        30.55R WCI  18
PIPESTONE      CLEAR     25  19  80 NE12      30.49R WCI  14
REDWOOD FALLS  CLEAR     27  19  72 NW9       30.51R WCI  18
TRACY          CLEAR     25  21  87 NW9       30.51R WCI  15
WINDOM         CLEAR     25  19  80 N13       30.47S WCI  13
WORTHINGTON    CLEAR     25  19  80 N12       30.49R WCI  14
$$

IAZ001>003-012>014-020>022-031-032-NEZ013-014-SDZ071-311000-
NORTHWEST IOWA

CITY           SKY/WX    TMP DP  RH WIND       PRES   REMARKS
CHEROKEE       CLEAR     28  22  77 N10       30.47S WCI  19
DENISON        CLEAR     30  19  64 N13G22    30.43S WCI  20
ESTHERVILLE    CLEAR     25  18  74 N13       30.45R WCI  14
LE MARS        CLEAR     27  21  80 N7        30.50F WCI  19
ORANGE CITY    CLEAR     27  21  80 N9        30.48S WCI  17
SHELDON        CLEAR     25  21  86 N9        30.47S WCI  15
SIOUX CITY     CLEAR     30  20  66 N14       30.51S WCI  19
SPENCER        CLEAR     27  20  75 N13       30.47R WCI  16
STORM LAKE     CLEAR     28  21  74 N16G25    30.45S WCI  17
$$

ABBREVIATIONS USED IN REMARKS
   TC - TEMPERATURE IN CELSIUS
  WCI - WIND CHILL INDEX
   HX - HEAT INDEX
  VSB - VISIBILITY




USA.gov is the U.S. government's official web portal to all federal, state and local government web resources and services.